Overview Statistics Trail Chart Weather Telemetry Raw packets
 

This is the latest recevied weather packets stored in our database for station/object OM8AGG-15. If no packets are shown the sender has not sent any weather packets the latest 10 day(s).

<< 1 2 3 4 >>
Time Temp. Humidity Pressure Rain* Wind** Luminosity Snow
1788599061 19.44° C 58% 1017.1 hPa - - - -
1788598161 20° C 57% 1016.7 hPa - - - -
1788597261 19.44° C 53% 1016.5 hPa - - - -
1788596360 19.44° C 54% 1016.6 hPa - - - -
1788595459 18.89° C 55% 1016.1 hPa - - - -
1788594559 19.44° C 53% 1015.8 hPa - - - -
1788593659 20.56° C 48% 1015.1 hPa - - - -
1788592757 20.56° C 48% 1015.1 hPa - - - -
1788591857 21.11° C 47% 1015.3 hPa - - - -
1788590957 21.67° C 46% 1015 hPa - - - -
1788590057 21.11° C 50% 1015 hPa - - - -
1788589156 20.56° C 52% 1014.7 hPa - - - -
1788588256 20° C 56% 1014.6 hPa - - - -
1788587356 20° C 55% 1014.5 hPa - - - -
1788586455 19.44° C 58% 1014.3 hPa - - - -
1788585580 20° C 57% 1014.3 hPa - - - -
1788584654 20° C 57% 1014.2 hPa - - - -
1788583753 19.44° C 59% 1014.4 hPa - - - -
1788582852 18.89° C 60% 1014.3 hPa - - - -
1788581952 18.33° C 62% 1013.9 hPa - - - -
1788581051 18.33° C 61% 1013.6 hPa - - - -
1788580151 17.78° C 62% 1013.8 hPa - - - -
1788579250 18.33° C 61% 1013.7 hPa - - - -
1788578350 17.78° C 62% 1012.9 hPa - - - -
1788577449 17.78° C 61% 1012.5 hPa - - - -

* Rain since midnight (hover to see other rain measurements)
** Current wind speed in m/s (hover to see current wind gust speed)